Regional Weather Roundup
Issued by NWS

Home | Current Version | Previous Version | Graphics & Text | Print | Product List | Glossary On
Versions: 1 2 3 4 5 6 7 8 9 10 11 12 13 14 15 16 17 18 19 20 21 22 23 24 25 26 27 28 29 30 31 32 33 34 35 36 37 38 39 40 41 42 43 44 45 46 47 48 49 50
000
ASUS43 KBIS 291110
RWRND

NORTH DAKOTA REGIONAL WEATHER ROUNDUP
NATIONAL WEATHER SERVICE BISMARCK ND
500 AM CST MON DEC 29 2014

NOTE: "FAIR" INDICATES FEW OR NO CLOUDS BELOW 12,000 FEET WITH NO
SIGNIFICANT WEATHER AND/OR OBSTRUCTIONS TO VISIBILITY.


NDZ001>003-009>011-017-291200-
NORTHWEST NORTH DAKOTA

CITY           SKY/WX    TMP DP  RH WIND       PRES   REMARKS
WILLISTON      PTCLDY   -10 -16  74 N6        30.61R WCI -23
MINOT          CLEAR    -13 -19  75 NW9       30.59R WCI -31
MINOT AFB      CLEAR    -15 -20  78 NW9       30.60R WCI -34
$$

NDZ018>021-031>035-040>046-291200-
SOUTHWEST NORTH DAKOTA

CITY           SKY/WX    TMP DP  RH WIND       PRES   REMARKS
BISMARCK       PTCLDY    -6 -12  75 N10       30.57R WCI -24
DICKINSON      CLOUDY     0  -6  76 N12       30.45R WCI -17
GARRISON         N/A     -9 -14  78 N15       30.54R WCI -31
HETTINGER ARPT CLOUDY     0  -4  83 N13       30.43R WCI -18
$$

NDZ004>008-012>016-024-026-027-054-291200-
NORTHEAST NORTH DAKOTA

CITY           SKY/WX    TMP DP  RH WIND       PRES   REMARKS
GRAND FORKS    PTCLDY   -12 -18  74 N8        30.63R WCI -29
GRND FRKS AFB  PTCLDY   -12 -17  77 N9        30.63R WCI -30
DEVILS LAKE    PTCLDY   -11 -22  58 NW7       30.56R WCI -26
$$

NDZ022-023-025-028>030-036>039-047>053-291200-
SOUTHEAST NORTH DAKOTA

CITY           SKY/WX    TMP DP  RH WIND       PRES   REMARKS
FARGO          CLEAR     -6 -12  75 N14       30.59R WCI -26
JAMESTOWN      PTCLDY    -9 -15  75 N13       30.54R WCI -29
$$



USA.gov is the U.S. government's official web portal to all federal, state and local government web resources and services.